Home > Weather > Tampa > Past weeks

Flag for USA Past Weather in Tampa, Florida, USA — Yesterday and Last 2 Weeks

Now
97 °F

Sunny.


Feels Like: 105 °F
Forecast: 78 / 94 °F
Wind: 5 mph from Southwest

Location: Tampa, Peter O Knight Airport

Current Time: Jul 27, 2016 at 3:17:34 PM

Latest Report: Jul 27, 2016 at 2:35 PM


Visibility: 10 mi

Pressure: 30.05 "Hg

Humidity: 44%

Dew Point: 72 °F

Location of TampaLocation

Past Weather in Tampa — Graph

°F

Tampa Temperature Yesterday

Maximum temperature yesterday: 97 °F (at 4:15 PM)
Minimum temperature yesterday: 77 °F (at 3:55 AM)
Average temperature yesterday: 87 °F

High & Low Weather Summary for the Past Weeks

 TemperatureHumidityPressure
High97 °F (Jul 14, 5:15 PM)100% (Jul 13, 12:55 AM)30.22 "Hg (Jul 13, 12:55 AM)
Low75 °F (Jul 23, 2:15 AM)44% (Jul 15, 5:35 PM)29.99 "Hg (Jul 23, 6:15 PM)
Average84 °F77%30.09 "Hg
* Reported Jul 12 2:15 PM — Jul 27 2:15 PM, Tampa, Weather by CustomWeather, © 2016

Note: Actual official high and low records may vary slightly from our data, if they occured in-between our weather recording intervals... More about our weather records

Advertising

Tampa Weather History for the Previous 24 Hours

Scroll right to see more
 ConditionsComfort  
Time TempWeatherWind HumidityBarometerVisibility
2:15 PM
Wed, Jul 27
97 °FSunny.5 mph47%30.06 "Hg10 mi
1:55 PM97 °FSunny.6 mph47%30.07 "Hg10 mi
1:35 PM97 °FSunny.7 mph47%30.08 "Hg10 mi
1:15 PM95 °FSunny.3 mph50%30.09 "Hg10 mi
12:55 PM95 °FSunny.7 mph50%30.09 "Hg10 mi
12:35 PM95 °FSunny.7 mph56%30.10 "Hg10 mi
12:15 PM93 °FSunny.7 mph59%30.10 "Hg10 mi
11:55 AM91 °FSunny.6 mph67%30.11 "Hg10 mi
11:35 AM91 °FSunny.7 mph67%30.11 "Hg10 mi
11:15 AM91 °FSunny.6 mph67%30.11 "Hg10 mi
10:55 AM90 °FSunny.5 mph71%30.10 "Hg10 mi
10:35 AM90 °FSunny.5 mph71%30.10 "Hg10 mi
10:15 AM90 °FSunny.3 mph71%30.10 "Hg10 mi
9:55 AM88 °FSunny.6 mph75%30.10 "Hg10 mi
9:35 AM88 °FSunny.6 mph75%30.11 "Hg10 mi
9:15 AM86 °FSunny.7 mph79%30.11 "Hg10 mi
8:55 AM86 °FSunny.9 mph79%30.11 "Hg10 mi
8:35 AM84 °FSunny.No wind84%30.10 "Hg10 mi
7:55 AM82 °FSunny.No wind89%30.09 "Hg10 mi
7:35 AM81 °FClear.3 mph94%30.08 "Hg10 mi
7:15 AM81 °FClear.No wind94%30.07 "Hg10 mi
6:55 AM81 °FClear.6 mph89%30.07 "Hg10 mi
6:35 AM81 °FClear.6 mph89%30.06 "Hg10 mi
6:15 AM81 °FClear.6 mph89%30.06 "Hg10 mi
5:55 AM81 °FPassing clouds.5 mph89%30.06 "Hg10 mi
5:15 AM81 °FClear.No wind89%30.06 "Hg10 mi
4:55 AM81 °FClear.3 mph89%30.06 "Hg10 mi
4:35 AM81 °FClear.No wind89%30.06 "Hg10 mi
4:15 AM81 °FPassing clouds.3 mph89%30.06 "Hg10 mi
3:55 AM81 °FPassing clouds.3 mph89%30.06 "Hg10 mi
3:35 AM81 °FPassing clouds.5 mph89%30.06 "Hg10 mi
2:55 AM81 °FPassing clouds.3 mph89%30.07 "Hg10 mi
2:15 AM81 °FPassing clouds.3 mph89%30.07 "Hg10 mi
1:55 AM81 °FPassing clouds.5 mph89%30.08 "Hg10 mi
1:35 AM81 °FPassing clouds.6 mph89%30.08 "Hg10 mi
1:15 AM81 °FPassing clouds.5 mph89%30.09 "Hg10 mi
12:55 AM82 °FPassing clouds.7 mph89%30.09 "Hg10 mi
12:15 AM82 °FClear.3 mph89%30.09 "Hg10 mi
11:55 PM
Tue, Jul 26
82 °FClear.6 mph89%30.09 "Hg10 mi
11:35 PM84 °FPassing clouds.10 mph84%30.08 "Hg10 mi
11:15 PM82 °FPassing clouds.No wind89%30.08 "Hg10 mi
10:55 PM84 °FLight rain. Partly cloudy.No wind84%30.08 "Hg10 mi
10:35 PM86 °FLight rain. Passing clouds.No wind75%30.07 "Hg10 mi
10:15 PM86 °FClear.No wind66%30.07 "Hg10 mi
9:55 PM86 °FClear.3 mph75%30.06 "Hg10 mi
9:35 PM86 °FClear.3 mph75%30.06 "Hg10 mi
9:15 PM86 °FSunny.3 mph66%30.06 "Hg10 mi
8:55 PM86 °FScattered clouds.8 mph75%30.05 "Hg10 mi
8:35 PM86 °FScattered clouds.9 mph79%30.05 "Hg10 mi
8:15 PM88 °FPartly sunny.12 mph70%30.03 "Hg10 mi
7:55 PM91 °FScattered clouds.5 mph59%30.02 "Hg10 mi
7:35 PM91 °FScattered clouds.3 mph56%30.02 "Hg10 mi
7:15 PM91 °FScattered clouds.5 mph63%30.02 "Hg10 mi
6:55 PM95 °FScattered clouds.7 mph50%30.01 "Hg10 mi
6:35 PM95 °FSunny.3 mph50%30.00 "Hg10 mi
6:15 PM95 °FSunny.5 mph50%30.00 "Hg10 mi
5:55 PM95 °FSunny.6 mph50%30.01 "Hg10 mi
5:35 PM95 °FSunny.6 mph50%30.01 "Hg10 mi
5:15 PM97 °FSunny.3 mph47%30.01 "Hg10 mi
4:55 PM97 °FSunny.No wind50%30.01 "Hg10 mi
4:35 PM97 °FSunny.No wind50%30.02 "Hg10 mi
4:15 PM97 °FSunny.5 mph50%30.03 "Hg10 mi
3:55 PM95 °FSunny.3 mph53%30.04 "Hg10 mi
3:35 PM95 °FSunny.3 mph53%30.04 "Hg10 mi
3:15 PM95 °FSunny.No wind53%30.05 "Hg10 mi
Weather by CustomWeather, © 2016

See weather overviewHow to use our weather pages